Time,TemperatureF,DewpointF,PressureIn,WindDirection,WindDirectionDegrees,WindSpeedMPH,WindSpeedGustMPH,Humidity,HourlyPrecipIn,Conditions,Clouds,dailyrainin,SoftwareType,DateUTC
2013-03-09 00:00:00,48.5,44.2,29.97,SSW,206,0.0,0.0,85,0.00,,BKN019,0.00,VWS V14.00,2013-03-09 08:00:00,
2013-03-09 00:05:00,48.5,44.2,29.98,SSW,205,0.0,1.0,85,0.00,,BKN019,0.00,VWS V14.00,2013-03-09 08:05:00,
2013-03-09 00:10:00,48.3,44.0,29.98,SSW,204,0.0,1.0,85,0.00,,BKN019,0.00,VWS V14.00,2013-03-09 08:10:00,
2013-03-09 00:15:00,48.2,43.9,29.98,SSW,206,0.0,1.0,85,0.00,,BKN019,0.00,VWS V14.00,2013-03-09 08:15:00,
2013-03-09 00:20:00,48.3,44.0,29.98,South,183,3.0,3.0,85,0.00,,BKN019,0.00,VWS V14.00,2013-03-09 08:20:00,
2013-03-09 00:25:00,48.2,44.2,29.98,South,178,0.0,3.0,86,0.00,,BKN019,0.00,VWS V14.00,2013-03-09 08:25:00,
2013-03-09 00:30:00,48.2,44.2,29.98,SW,222,0.0,3.0,86,0.00,,BKN019,0.00,VWS V14.00,2013-03-09 08:30:00,
2013-03-09 00:35:00,48.3,44.3,29.99,SW,225,0.0,3.0,86,0.00,,BKN019,0.00,VWS V14.00,2013-03-09 08:35:00,
2013-03-09 00:40:00,48.1,43.8,30.00,SW,225,0.0,3.0,85,0.00,,BKN019,0.00,VWS V14.00,2013-03-09 08:40:00,
2013-03-09 00:45:00,47.9,43.9,30.00,SW,225,0.0,3.0,86,0.00,,OVC019,0.00,VWS V14.00,2013-03-09 08:45:00,
2013-03-09 00:50:00,48.1,44.1,30.00,SW,225,0.0,3.0,86,0.00,,OVC019,0.00,VWS V14.00,2013-03-09 08:50:00,
2013-03-09 00:55:00,48.1,44.1,30.00,SW,225,0.0,3.0,86,0.00,,OVC019,0.00,VWS V14.00,2013-03-09 08:55:00,
2013-03-09 01:00:00,47.9,43.9,30.00,SW,225,0.0,0.0,86,0.00,,OVC019,0.00,VWS V14.00,2013-03-09 09:00:00,
2013-03-09 01:05:00,48.0,44.3,30.00,SW,224,0.0,0.0,87,0.00,,OVC019,0.00,VWS V14.00,2013-03-09 09:05:00,
2013-03-09 01:10:00,48.1,44.1,30.00,SW,225,0.0,1.0,86,0.00,,OVC019,0.00,VWS V14.00,2013-03-09 09:10:00,
2013-03-09 01:15:00,48.1,44.1,30.01,SW,214,0.0,4.0,86,0.00,,OVC019,0.00,VWS V14.00,2013-03-09 09:15:00,
2013-03-09 01:20:00,48.4,44.4,30.01,South,181,0.0,4.0,86,0.00,,OVC019,0.00,VWS V14.00,2013-03-09 09:20:00,
2013-03-09 01:25:00,48.3,44.3,30.00,SSW,207,0.0,4.0,86,0.00,,OVC019,0.00,VWS V14.00,2013-03-09 09:25:00,
2013-03-09 01:30:00,48.1,44.4,30.01,SSW,200,0.0,0.0,87,0.00,,OVC019,0.00,VWS V14.00,2013-03-09 09:30:00,
2013-03-09 01:35:00,48.2,44.2,30.01,SW,218,0.0,1.0,86,0.00,,OVC019,0.00,VWS V14.00,2013-03-09 09:35:00,
2013-03-09 01:40:00,48.1,44.1,30.02,SW,216,0.0,1.0,86,0.00,,OVC019,0.00,VWS V14.00,2013-03-09 09:40:00,
2013-03-09 01:45:00,48.1,44.4,30.01,SW,214,0.0,1.0,87,0.00,,OVC019,0.00,VWS V14.00,2013-03-09 09:45:00,
2013-03-09 01:50:00,48.0,44.3,30.01,SSW,212,0.0,1.0,87,0.00,,OVC019,0.00,VWS V14.00,2013-03-09 09:50:00,
2013-03-09 01:55:00,48.1,44.1,30.02,SSW,213,0.0,1.0,86,0.00,,OVC019,0.00,VWS V14.00,2013-03-09 09:55:00,
2013-03-09 02:00:00,48.1,44.4,30.02,SSW,195,0.0,0.0,87,0.00,,OVC019,0.00,VWS V14.00,2013-03-09 10:00:00,
2013-03-09 02:05:00,48.2,44.5,30.01,SSW,195,0.0,1.0,87,0.00,,OVC019,0.00,VWS V14.00,2013-03-09 10:05:00,
2013-03-09 02:10:00,48.0,44.3,30.01,SSW,199,0.0,1.0,87,0.00,,OVC019,0.00,VWS V14.00,2013-03-09 10:10:00,
2013-03-09 02:15:00,47.9,44.2,30.01,SSW,201,0.0,1.0,87,0.00,,OVC019,0.00,VWS V14.00,2013-03-09 10:15:00,
2013-03-09 02:20:00,47.6,43.6,30.01,SSW,196,0.0,1.0,86,0.00,,OVC019,0.00,VWS V14.00,2013-03-09 10:20:00,
2013-03-09 02:25:00,47.8,44.1,30.00,SSW,196,0.0,1.0,87,0.00,,OVC019,0.00,VWS V14.00,2013-03-09 10:25:00,
2013-03-09 02:30:00,47.7,44.0,30.00,SSW,197,0.0,0.0,87,0.00,,OVC019,0.00,VWS V14.00,2013-03-09 10:30:00,
2013-03-09 02:35:00,47.5,43.8,30.01,SSW,195,0.0,1.0,87,0.00,,OVC019,0.00,VWS V14.00,2013-03-09 10:35:00,
2013-03-09 02:40:00,47.6,43.9,30.01,SSW,195,0.0,1.0,87,0.00,,OVC019,0.00,VWS V14.00,2013-03-09 10:40:00,
2013-03-09 02:45:00,47.4,43.7,30.00,SSW,195,0.0,1.0,87,0.00,,BKN021,0.00,VWS V14.00,2013-03-09 10:45:00,
2013-03-09 02:50:00,47.3,43.3,30.01,SSW,195,0.0,1.0,86,0.00,,BKN021,0.00,VWS V14.00,2013-03-09 10:50:00,
2013-03-09 02:55:00,47.1,43.7,30.01,SSW,195,0.0,1.0,88,0.00,,BKN021,0.00,VWS V14.00,2013-03-09 10:55:00,
2013-03-09 03:00:00,46.9,43.5,30.01,SSW,195,0.0,0.0,88,0.00,,SCT019,0.00,VWS V14.00,2013-03-09 11:00:00,
2013-03-09 03:05:00,46.6,43.2,30.01,SSW,195,0.0,0.0,88,0.00,,SCT019,0.00,VWS V14.00,2013-03-09 11:05:00,
2013-03-09 03:10:00,46.1,43.0,30.01,SSW,195,0.0,0.0,89,0.00,,SCT019,0.00,VWS V14.00,2013-03-09 11:10:00,
2013-03-09 03:15:00,46.3,43.2,30.00,SSW,195,0.0,0.0,89,0.00,,BKN021,0.00,VWS V14.00,2013-03-09 11:15:00,
2013-03-09 03:20:00,46.2,43.1,30.00,SSW,195,0.0,0.0,89,0.00,,BKN021,0.00,VWS V14.00,2013-03-09 11:20:00,
2013-03-09 03:25:00,45.9,43.1,30.01,SSW,195,0.0,0.0,90,0.00,,BKN021,0.00,VWS V14.00,2013-03-09 11:25:00,
2013-03-09 03:30:00,45.8,43.0,30.00,SSW,195,0.0,0.0,90,0.00,,SCT019,0.00,VWS V14.00,2013-03-09 11:30:00,
2013-03-09 03:35:00,46.0,43.2,30.00,SSW,194,0.0,0.0,90,0.00,,SCT019,0.00,VWS V14.00,2013-03-09 11:35:00,
2013-03-09 03:40:00,45.6,42.8,30.01,SSW,194,0.0,0.0,90,0.00,,SCT019,0.00,VWS V14.00,2013-03-09 11:40:00,
2013-03-09 03:45:00,45.6,42.8,30.01,SSW,195,0.0,0.0,90,0.00,,FEW019,0.00,VWS V14.00,2013-03-09 11:45:00,
2013-03-09 03:50:00,45.6,42.5,30.01,SSW,195,0.0,0.0,89,0.00,,FEW019,0.00,VWS V14.00,2013-03-09 11:50:00,
2013-03-09 03:55:00,45.2,42.5,30.02,SSW,195,0.0,0.0,90,0.00,,FEW019,0.00,VWS V14.00,2013-03-09 11:55:00,
2013-03-09 04:00:00,45.2,42.5,30.02,SSW,195,0.0,0.0,90,0.00,,FEW019,0.00,VWS V14.00,2013-03-09 12:00:00,
2013-03-09 04:05:00,45.0,42.2,30.03,SSW,195,0.0,0.0,90,0.00,,FEW019,0.00,VWS V14.00,2013-03-09 12:05:00,
2013-03-09 04:10:00,45.0,42.2,30.03,SSW,195,0.0,0.0,90,0.00,,FEW019,0.00,VWS V14.00,2013-03-09 12:10:00,
2013-03-09 04:15:00,44.6,42.1,30.03,SSW,195,0.0,0.0,91,0.00,,FEW019,0.00,VWS V14.00,2013-03-09 12:15:00,
2013-03-09 04:20:00,44.6,42.1,30.04,SSW,195,0.0,0.0,91,0.00,,FEW019,0.00,VWS V14.00,2013-03-09 12:20:00,
2013-03-09 04:25:00,44.2,41.7,30.05,SSW,195,0.0,0.0,91,0.00,,FEW019,0.00,VWS V14.00,2013-03-09 12:25:00,
2013-03-09 04:30:00,44.1,41.4,30.05,SSW,194,0.0,0.0,90,0.00,,FEW019,0.00,VWS V14.00,2013-03-09 12:30:00,
2013-03-09 04:35:00,44.0,41.3,30.05,SSW,195,0.0,0.0,90,0.00,,FEW019,0.00,VWS V14.00,2013-03-09 12:35:00,
2013-03-09 04:40:00,43.7,41.2,30.06,SSW,196,0.0,0.0,91,0.00,,FEW019,0.00,VWS V14.00,2013-03-09 12:40:00,
2013-03-09 04:45:00,43.6,41.2,30.06,SSW,195,0.0,0.0,91,0.00,,FEW019,0.00,VWS V14.00,2013-03-09 12:45:00,
2013-03-09 04:50:00,43.8,41.1,30.06,SSW,195,0.0,0.0,90,0.00,,FEW019,0.00,VWS V14.00,2013-03-09 12:50:00,
2013-03-09 04:55:00,43.8,41.1,30.07,SSW,195,0.0,0.0,90,0.00,,FEW019,0.00,VWS V14.00,2013-03-09 12:55:00,
2013-03-09 05:00:00,43.4,41.0,30.07,SSW,195,0.0,0.0,91,0.00,,BKN018,0.00,VWS V14.00,2013-03-09 13:00:00,
2013-03-09 05:05:00,43.3,40.8,30.08,SSW,195,0.0,0.0,91,0.00,,BKN018,0.00,VWS V14.00,2013-03-09 13:05:00,
2013-03-09 05:10:00,43.0,40.3,30.08,SSW,194,0.0,0.0,90,0.00,,BKN018,0.00,VWS V14.00,2013-03-09 13:10:00,
2013-03-09 05:15:00,42.9,40.2,30.08,SSW,195,0.0,0.0,90,0.00,,CLR,0.00,VWS V14.00,2013-03-09 13:15:00,
2013-03-09 05:20:00,42.8,40.4,30.08,SSW,195,0.0,0.0,91,0.00,,CLR,0.00,VWS V14.00,2013-03-09 13:20:00,
2013-03-09 05:25:00,42.9,40.5,30.08,SSW,195,0.0,0.0,91,0.00,,CLR,0.00,VWS V14.00,2013-03-09 13:25:00,
2013-03-09 05:30:00,42.7,40.3,30.09,SSW,195,0.0,0.0,91,0.00,,BKN018,0.00,VWS V14.00,2013-03-09 13:30:00,
2013-03-09 05:35:00,42.6,40.2,30.09,SSW,195,0.0,0.0,91,0.00,,BKN018,0.00,VWS V14.00,2013-03-09 13:35:00,
2013-03-09 05:40:00,42.3,39.9,30.09,SSW,195,0.0,0.0,91,0.00,,BKN018,0.00,VWS V14.00,2013-03-09 13:40:00,
2013-03-09 05:45:00,42.0,39.6,30.10,SSW,195,0.0,0.0,91,0.00,,SCT018,0.00,VWS V14.00,2013-03-09 13:45:00,
2013-03-09 05:50:00,42.4,40.0,30.10,SSW,195,0.0,0.0,91,0.00,,SCT018,0.00,VWS V14.00,2013-03-09 13:50:00,
2013-03-09 05:55:00,42.2,40.0,30.11,SSW,195,0.0,0.0,92,0.00,,SCT018,0.00,VWS V14.00,2013-03-09 13:55:00,
2013-03-09 06:00:00,42.2,40.0,30.11,SSW,195,0.0,0.0,92,0.00,,SCT018,0.00,VWS V14.00,2013-03-09 14:00:00,
2013-03-09 06:05:00,41.9,40.0,30.10,SSW,195,0.0,0.0,93,0.00,,SCT018,0.00,VWS V14.00,2013-03-09 14:05:00,
2013-03-09 06:10:00,42.2,40.0,30.10,SSW,195,0.0,0.0,92,0.00,,SCT018,0.00,VWS V14.00,2013-03-09 14:10:00,
2013-03-09 06:15:00,41.8,39.7,30.10,SSW,195,0.0,0.0,92,0.00,,SCT018,0.00,VWS V14.00,2013-03-09 14:15:00,
2013-03-09 06:20:00,41.7,39.5,30.11,SSW,195,0.0,0.0,92,0.00,,SCT018,0.00,VWS V14.00,2013-03-09 14:20:00,
2013-03-09 06:25:00,41.6,39.7,30.11,SSW,195,0.0,0.0,93,0.00,,SCT018,0.00,VWS V14.00,2013-03-09 14:25:00,
2013-03-09 06:30:00,41.5,39.3,30.11,SSW,194,0.0,0.0,92,0.00,,SCT018,0.00,VWS V14.00,2013-03-09 14:30:00,
2013-03-09 06:35:00,41.6,39.7,30.11,SSW,195,0.0,0.0,93,0.00,,SCT018,0.00,VWS V14.00,2013-03-09 14:35:00,
2013-03-09 06:40:00,41.4,39.2,30.12,SSW,195,0.0,0.0,92,0.00,,SCT018,0.00,VWS V14.00,2013-03-09 14:40:00,
2013-03-09 06:45:00,41.4,39.5,30.12,SSW,194,0.0,0.0,93,0.00,,CLR,0.00,VWS V14.00,2013-03-09 14:45:00,
2013-03-09 06:50:00,41.4,39.5,30.12,SSW,195,0.0,0.0,93,0.00,,CLR,0.00,VWS V14.00,2013-03-09 14:50:00,
2013-03-09 06:55:00,41.3,39.4,30.12,SSW,196,0.0,0.0,93,0.00,,CLR,0.00,VWS V14.00,2013-03-09 14:55:00,
2013-03-09 07:00:00,41.6,39.7,30.12,SSW,194,0.0,0.0,93,0.00,,CLR,0.00,VWS V14.00,2013-03-09 15:00:00,
2013-03-09 07:05:00,41.2,39.3,30.13,SSW,195,0.0,0.0,93,0.00,,CLR,0.00,VWS V14.00,2013-03-09 15:05:00,
2013-03-09 07:10:00,41.4,39.5,30.13,SSW,195,0.0,0.0,93,0.00,,CLR,0.00,VWS V14.00,2013-03-09 15:10:00,
2013-03-09 07:15:00,41.3,39.7,30.13,SSW,194,0.0,0.0,94,0.00,,CLR,0.00,VWS V14.00,2013-03-09 15:15:00,
2013-03-09 07:20:00,41.5,39.9,30.13,SSW,195,0.0,0.0,94,0.00,,CLR,0.00,VWS V14.00,2013-03-09 15:20:00,
2013-03-09 07:25:00,41.6,40.0,30.13,SSW,195,0.0,0.0,94,0.00,,CLR,0.00,VWS V14.00,2013-03-09 15:25:00,
2013-03-09 07:30:00,41.9,40.3,30.14,SSW,195,0.0,0.0,94,0.00,,CLR,0.00,VWS V14.00,2013-03-09 15:30:00,
2013-03-09 07:35:00,42.2,40.6,30.14,SSW,195,0.0,0.0,94,0.00,,CLR,0.00,VWS V14.00,2013-03-09 15:35:00,
2013-03-09 07:40:00,42.1,40.5,30.14,SSW,195,0.0,0.0,94,0.00,,CLR,0.00,VWS V14.00,2013-03-09 15:40:00,
2013-03-09 07:45:00,42.1,40.8,30.14,SSW,194,0.0,0.0,95,0.00,,CLR,0.00,VWS V14.00,2013-03-09 15:45:00,
2013-03-09 07:50:00,42.3,40.7,30.15,SSW,195,0.0,0.0,94,0.00,,CLR,0.00,VWS V14.00,2013-03-09 15:50:00,
2013-03-09 07:55:00,42.5,41.2,30.15,SSW,195,0.0,0.0,95,0.00,,CLR,0.00,VWS V14.00,2013-03-09 15:55:00,
2013-03-09 08:00:00,42.7,41.4,30.15,SSW,195,0.0,0.0,95,0.00,,CLR,0.00,VWS V14.00,2013-03-09 16:00:00,
2013-03-09 08:05:00,43.2,41.6,30.15,SSW,195,0.0,0.0,94,0.00,,CLR,0.00,VWS V14.00,2013-03-09 16:05:00,
2013-03-09 08:10:00,43.3,41.7,30.15,SSW,195,0.0,0.0,94,0.00,,CLR,0.00,VWS V14.00,2013-03-09 16:10:00,
2013-03-09 08:15:00,43.3,41.7,30.15,SSW,195,0.0,0.0,94,0.00,,CLR,0.00,VWS V14.00,2013-03-09 16:15:00,
2013-03-09 08:20:00,43.7,42.4,30.16,SSW,195,0.0,0.0,95,0.00,,CLR,0.00,VWS V14.00,2013-03-09 16:20:00,
2013-03-09 08:25:00,44.1,42.5,30.16,SSW,196,0.0,0.0,94,0.00,,CLR,0.00,VWS V14.00,2013-03-09 16:25:00,
2013-03-09 08:30:00,44.4,43.1,30.16,SSW,195,0.0,0.0,95,0.00,,CLR,0.00,VWS V14.00,2013-03-09 16:30:00,
2013-03-09 08:35:00,44.8,43.2,30.16,SSW,195,0.0,0.0,94,0.00,,CLR,0.00,VWS V14.00,2013-03-09 16:35:00,
2013-03-09 08:40:00,45.3,43.7,30.17,SSW,195,0.0,0.0,94,0.00,,CLR,0.00,VWS V14.00,2013-03-09 16:40:00,
2013-03-09 08:45:00,45.5,43.3,30.16,SSW,195,0.0,0.0,92,0.00,,CLR,0.00,VWS V14.00,2013-03-09 16:45:00,
2013-03-09 08:50:00,45.8,43.6,30.17,SSW,194,0.0,0.0,92,0.00,,CLR,0.00,VWS V14.00,2013-03-09 16:50:00,
2013-03-09 08:55:00,46.3,43.8,30.17,SSW,195,0.0,0.0,91,0.00,,CLR,0.00,VWS V14.00,2013-03-09 16:55:00,
2013-03-09 09:00:00,46.7,44.2,30.17,SSW,195,0.0,0.0,91,0.00,,CLR,0.00,VWS V14.00,2013-03-09 17:00:00,
2013-03-09 09:05:00,47.0,43.9,30.17,SSW,194,0.0,0.0,89,0.00,,CLR,0.00,VWS V14.00,2013-03-09 17:05:00,
2013-03-09 09:10:00,47.4,44.3,30.17,SSW,195,0.0,0.0,89,0.00,,CLR,0.00,VWS V14.00,2013-03-09 17:10:00,
2013-03-09 09:15:00,47.9,44.2,30.17,SSW,196,0.0,0.0,87,0.00,,CLR,0.00,VWS V14.00,2013-03-09 17:15:00,
2013-03-09 09:20:00,48.2,44.5,30.17,SSW,196,0.0,0.0,87,0.00,,CLR,0.00,VWS V14.00,2013-03-09 17:20:00,
2013-03-09 09:25:00,48.5,44.2,30.17,SSW,196,0.0,0.0,85,0.00,,CLR,0.00,VWS V14.00,2013-03-09 17:25:00,
2013-03-09 09:30:00,48.9,44.6,30.17,SSW,196,0.0,0.0,85,0.00,,CLR,0.00,VWS V14.00,2013-03-09 17:30:00,
2013-03-09 09:35:00,49.2,44.6,30.17,SSW,196,0.0,0.0,84,0.00,,CLR,0.00,VWS V14.00,2013-03-09 17:35:00,
2013-03-09 09:40:00,49.3,44.4,30.17,SSW,196,0.0,0.0,83,0.00,,CLR,0.00,VWS V14.00,2013-03-09 17:40:00,
2013-03-09 09:45:00,49.9,44.3,30.17,SSW,197,0.0,0.0,81,0.00,,CLR,0.00,VWS V14.00,2013-03-09 17:45:00,
2013-03-09 09:50:00,50.3,44.0,30.17,SW,216,0.0,0.0,79,0.00,,CLR,0.00,VWS V14.00,2013-03-09 17:50:00,
2013-03-09 09:55:00,50.8,44.2,30.17,SW,218,0.0,0.0,78,0.00,,CLR,0.00,VWS V14.00,2013-03-09 17:55:00,
2013-03-09 10:00:00,51.2,44.9,30.17,SW,219,0.0,0.0,79,0.00,,CLR,0.00,VWS V14.00,2013-03-09 18:00:00,
2013-03-09 10:05:00,51.7,44.7,30.18,SW,225,0.0,0.0,77,0.00,,CLR,0.00,VWS V14.00,2013-03-09 18:05:00,
2013-03-09 10:10:00,52.1,44.8,30.18,SW,224,0.0,0.0,76,0.00,,CLR,0.00,VWS V14.00,2013-03-09 18:10:00,
2013-03-09 10:15:00,52.6,44.6,30.17,SW,224,0.0,0.0,74,0.00,,CLR,0.00,VWS V14.00,2013-03-09 18:15:00,
2013-03-09 10:20:00,53.0,44.6,30.18,SW,225,0.0,0.0,73,0.00,,CLR,0.00,VWS V14.00,2013-03-09 18:20:00,
2013-03-09 10:25:00,53.4,43.9,30.18,North,355,0.0,0.0,70,0.00,,CLR,0.00,VWS V14.00,2013-03-09 18:25:00,
2013-03-09 10:30:00,53.9,44.0,30.18,North,355,0.0,0.0,69,0.00,,CLR,0.00,VWS V14.00,2013-03-09 18:30:00,
2013-03-09 10:35:00,54.4,43.7,30.18,North,354,0.0,0.0,67,0.00,,CLR,0.00,VWS V14.00,2013-03-09 18:35:00,
2013-03-09 10:40:00,54.7,43.6,30.18,NNW,347,0.0,0.0,66,0.00,,CLR,0.00,VWS V14.00,2013-03-09 18:40:00,
2013-03-09 10:45:00,55.2,43.7,30.18,NNW,348,0.0,0.0,65,0.00,,CLR,0.00,VWS V14.00,2013-03-09 18:45:00,
2013-03-09 10:50:00,55.6,44.0,30.17,North,352,0.0,0.0,65,0.00,,CLR,0.00,VWS V14.00,2013-03-09 18:50:00,
2013-03-09 10:55:00,56.1,44.1,30.18,NW,320,0.0,0.0,64,0.00,,CLR,0.00,VWS V14.00,2013-03-09 18:55:00,
2013-03-09 11:00:00,56.5,44.1,30.18,NNW,329,0.0,0.0,63,0.00,,CLR,0.00,VWS V14.00,2013-03-09 19:00:00,
2013-03-09 11:05:00,56.9,44.0,30.18,North,356,0.0,0.0,62,0.00,,CLR,0.00,VWS V14.00,2013-03-09 19:05:00,
2013-03-09 11:10:00,57.5,44.2,30.19,North,0,0.0,0.0,61,0.00,,CLR,0.00,VWS V14.00,2013-03-09 19:10:00,
2013-03-09 11:15:00,57.9,43.7,30.19,North,0,0.0,0.0,59,0.00,,CLR,0.00,VWS V14.00,2013-03-09 19:15:00,
2013-03-09 11:20:00,58.4,44.1,30.19,North,0,0.0,0.0,59,0.00,,CLR,0.00,VWS V14.00,2013-03-09 19:20:00,
2013-03-09 11:25:00,59.1,44.8,30.19,NNE,13,0.0,0.0,59,0.00,,CLR,0.00,VWS V14.00,2013-03-09 19:25:00,
2013-03-09 11:30:00,60.0,45.2,30.19,NE,44,0.0,0.0,58,0.00,,CLR,0.00,VWS V14.00,2013-03-09 19:30:00,
2013-03-09 11:35:00,60.6,44.4,30.19,NE,44,0.0,0.0,55,0.00,,CLR,0.00,VWS V14.00,2013-03-09 19:35:00,
2013-03-09 11:40:00,61.0,44.7,30.18,NNE,32,0.0,0.0,55,0.00,,CLR,0.00,VWS V14.00,2013-03-09 19:40:00,
2013-03-09 11:45:00,61.5,44.7,30.19,NE,39,0.0,0.0,54,0.00,,CLR,0.00,VWS V14.00,2013-03-09 19:45:00,
2013-03-09 11:51:00,62.4,44.6,30.19,North,0,0.0,0.0,52,0.00,,CLR,0.00,VWS V14.00,2013-03-09 19:51:00,
2013-03-09 11:55:00,62.8,43.9,30.19,North,8,0.0,0.0,50,0.00,,CLR,0.00,VWS V14.00,2013-03-09 19:55:00,
2013-03-09 12:00:00,63.2,43.7,30.19,North,0,0.0,0.0,49,0.00,,CLR,0.00,VWS V14.00,2013-03-09 20:00:00,
2013-03-09 12:05:00,63.7,44.2,30.18,North,351,0.0,0.0,49,0.00,,CLR,0.00,VWS V14.00,2013-03-09 20:05:00,
2013-03-09 12:10:00,64.3,44.2,30.18,NNE,16,0.0,0.0,48,0.00,,CLR,0.00,VWS V14.00,2013-03-09 20:10:00,
2013-03-09 12:15:00,64.4,43.2,30.18,North,358,0.0,0.0,46,0.00,,CLR,0.00,VWS V14.00,2013-03-09 20:15:00,
2013-03-09 12:20:00,65.0,44.3,30.17,North,359,0.0,0.0,47,0.00,,CLR,0.00,VWS V14.00,2013-03-09 20:20:00,
2013-03-09 12:25:00,65.7,44.9,30.18,North,1,0.0,0.0,47,0.00,,CLR,0.00,VWS V14.00,2013-03-09 20:25:00,
2013-03-09 12:30:00,66.6,43.4,30.18,North,5,0.0,0.0,43,0.00,,CLR,0.00,VWS V14.00,2013-03-09 20:30:00,
2013-03-09 12:36:00,67.5,43.6,30.18,NNE,16,0.0,0.0,42,0.00,,CLR,0.00,VWS V14.00,2013-03-09 20:36:00,
2013-03-09 12:41:00,68.2,44.9,30.17,NNW,347,0.0,0.0,43,0.00,,CLR,0.00,VWS V14.00,2013-03-09 20:41:00,
2013-03-09 12:46:00,68.6,44.6,30.17,NNW,348,0.0,1.0,42,0.00,,CLR,0.00,VWS V14.00,2013-03-09 20:46:00,
2013-03-09 12:51:00,68.7,45.9,30.18,NNW,327,0.0,6.0,44,0.00,,CLR,0.00,VWS V14.00,2013-03-09 20:51:00,
2013-03-09 12:56:00,69.8,45.7,30.17,NNE,18,0.0,8.0,42,0.00,,CLR,0.00,VWS V14.00,2013-03-09 20:56:00,
2013-03-09 13:00:00,73.7,42.8,30.16,NNW,346,1.0,8.0,33,0.00,,CLR,0.00,VWS V14.00,2013-03-09 21:00:00,
2013-03-09 13:01:00,70.3,44.9,30.17,North,6,0.0,2.0,40,0.00,,CLR,0.00,VWS V14.00,2013-03-09 21:01:00,
2013-03-09 13:06:00,70.9,45.4,30.17,NW,324,0.0,2.0,40,0.00,,CLR,0.00,VWS V14.00,2013-03-09 21:06:00,
2013-03-09 13:11:00,71.6,42.5,30.17,North,357,0.0,6.0,35,0.00,,CLR,0.00,VWS V14.00,2013-03-09 21:11:00,
2013-03-09 13:16:00,71.4,43.8,30.17,North,0,0.0,6.0,37,0.00,,CLR,0.00,VWS V14.00,2013-03-09 21:16:00,
2013-03-09 13:21:00,71.5,43.9,30.17,North,8,4.0,6.0,37,0.00,,CLR,0.00,VWS V14.00,2013-03-09 21:21:00,
2013-03-09 13:26:00,71.8,43.4,30.17,North,0,0.0,6.0,36,0.00,,CLR,0.00,VWS V14.00,2013-03-09 21:26:00,
2013-03-09 13:30:00,75.1,44.8,30.16,NNW,336,1.0,6.0,34,0.00,,CLR,0.00,VWS V14.00,2013-03-09 21:30:00,
2013-03-09 13:31:00,72.7,45.0,30.16,NNW,335,1.0,4.0,37,0.00,,CLR,0.00,VWS V14.00,2013-03-09 21:31:00,
2013-03-09 13:36:00,73.0,44.5,30.16,North,0,0.0,4.0,36,0.00,,CLR,0.00,VWS V14.00,2013-03-09 21:36:00,
2013-03-09 13:41:00,73.2,45.4,30.16,NE,47,0.0,6.0,37,0.00,,CLR,0.00,VWS V14.00,2013-03-09 21:41:00,
2013-03-09 13:46:00,73.5,44.2,30.15,North,4,0.0,6.0,35,0.00,,CLR,0.00,VWS V14.00,2013-03-09 21:46:00,
2013-03-09 13:51:00,73.6,43.5,30.16,NW,326,0.0,8.0,34,0.00,,CLR,0.00,VWS V14.00,2013-03-09 21:51:00,
2013-03-09 13:56:00,74.0,43.9,30.16,NW,319,0.0,8.0,34,0.00,,CLR,0.00,VWS V14.00,2013-03-09 21:56:00,
2013-03-09 14:00:00,77.2,44.3,30.16,NW,325,0.0,6.0,31,0.00,,CLR,0.00,VWS V14.00,2013-03-09 22:00:00,
2013-03-09 14:01:00,73.8,43.7,30.16,North,352,0.0,1.0,34,0.00,,CLR,0.00,VWS V14.00,2013-03-09 22:01:00,
2013-03-09 14:06:00,73.8,43.7,30.16,NNE,12,0.0,6.0,34,0.00,,CLR,0.00,VWS V14.00,2013-03-09 22:06:00,
2013-03-09 14:11:00,74.4,44.2,30.17,North,357,1.0,6.0,34,0.00,,CLR,0.00,VWS V14.00,2013-03-09 22:11:00,
2013-03-09 14:16:00,74.6,43.6,30.16,North,354,0.0,6.0,33,0.00,,CLR,0.00,VWS V14.00,2013-03-09 22:16:00,
2013-03-09 14:21:00,74.5,43.5,30.16,North,349,0.0,6.0,33,0.00,,CLR,0.00,VWS V14.00,2013-03-09 22:21:00,
2013-03-09 14:26:00,75.3,44.2,30.16,NNW,345,0.0,6.0,33,0.00,,CLR,0.00,VWS V14.00,2013-03-09 22:26:00,
2013-03-09 14:30:00,78.7,48.8,30.15,NNW,339,0.0,5.0,35,0.00,,CLR,0.00,VWS V14.00,2013-03-09 22:30:00,
2013-03-09 14:31:00,75.0,44.8,30.16,NNW,340,0.0,4.0,34,0.00,,CLR,0.00,VWS V14.00,2013-03-09 22:31:00,
2013-03-09 14:36:00,75.5,44.4,30.16,NNW,345,0.0,5.0,33,0.00,,CLR,0.00,VWS V14.00,2013-03-09 22:36:00,
2013-03-09 14:41:00,75.9,45.5,30.16,NNW,343,0.0,6.0,34,0.00,,CLR,0.00,VWS V14.00,2013-03-09 22:41:00,
2013-03-09 14:46:00,76.2,45.0,30.16,North,356,0.0,6.0,33,0.00,,CLR,0.00,VWS V14.00,2013-03-09 22:46:00,
2013-03-09 14:51:00,76.5,46.8,30.16,NNW,344,1.0,6.0,35,0.00,,CLR,0.00,VWS V14.00,2013-03-09 22:51:00,
2013-03-09 14:56:00,77.3,46.0,30.16,North,353,0.0,6.0,33,0.00,,CLR,0.00,VWS V14.00,2013-03-09 22:56:00,
2013-03-09 15:00:00,78.5,50.1,30.16,North,351,0.0,5.0,37,0.00,,CLR,0.00,VWS V14.00,2013-03-09 23:00:00,
2013-03-09 15:01:00,77.0,44.9,30.16,NNW,338,0.0,1.0,32,0.00,,CLR,0.00,VWS V14.00,2013-03-09 23:01:00,
2013-03-09 15:06:00,77.9,44.9,30.16,NNW,345,0.0,5.0,31,0.00,,CLR,0.00,VWS V14.00,2013-03-09 23:06:00,
2013-03-09 15:11:00,78.0,46.6,30.16,SE,138,0.0,5.0,33,0.00,,CLR,0.00,VWS V14.00,2013-03-09 23:11:00,
2013-03-09 15:16:00,78.2,49.8,30.16,NNW,332,0.0,5.0,37,0.00,,CLR,0.00,VWS V14.00,2013-03-09 23:16:00,
2013-03-09 15:21:00,78.5,47.8,30.16,NNW,346,0.0,5.0,34,0.00,,CLR,0.00,VWS V14.00,2013-03-09 23:21:00,
2013-03-09 15:26:00,78.7,47.2,30.15,NNW,347,0.0,5.0,33,0.00,,CLR,0.00,VWS V14.00,2013-03-09 23:26:00,
2013-03-09 15:30:00,75.9,49.2,30.16,North,9,0.0,4.0,39,0.00,,CLR,0.00,VWS V14.00,2013-03-09 23:30:00,
2013-03-09 15:31:00,78.9,48.2,30.17,NNW,347,1.0,1.0,34,0.00,,CLR,0.00,VWS V14.00,2013-03-09 23:31:00,
2013-03-09 15:36:00,78.8,49.6,30.15,North,355,0.0,1.0,36,0.00,,CLR,0.00,VWS V14.00,2013-03-09 23:36:00,
2013-03-09 15:41:00,78.3,48.4,30.16,North,1,0.0,4.0,35,0.00,,CLR,0.00,VWS V14.00,2013-03-09 23:41:00,
2013-03-09 15:46:00,78.2,49.1,30.16,WSW,251,0.0,4.0,36,0.00,,CLR,0.00,VWS V14.00,2013-03-09 23:46:00,
2013-03-09 15:51:00,79.0,51.2,30.16,SSW,201,0.0,4.0,38,0.00,,CLR,0.00,VWS V14.00,2013-03-09 23:51:00,
2013-03-09 15:56:00,78.4,49.3,30.16,West,265,0.0,5.0,36,0.00,,CLR,0.00,VWS V14.00,2013-03-09 23:56:00,
2013-03-09 16:00:00,70.9,48.5,30.17,NNW,328,0.0,2.0,45,0.00,,CLR,0.00,VWS V14.00,2013-03-10 00:00:00,
2013-03-09 16:01:00,78.8,50.4,30.16,NNW,345,0.0,0.0,37,0.00,,CLR,0.00,VWS V14.00,2013-03-10 00:01:00,
2013-03-09 16:06:00,78.6,49.4,30.16,North,358,0.0,3.0,36,0.00,,CLR,0.00,VWS V14.00,2013-03-10 00:06:00,
2013-03-09 16:11:00,77.9,49.6,30.15,NNW,343,0.0,4.0,37,0.00,,CLR,0.00,VWS V14.00,2013-03-10 00:11:00,
2013-03-09 16:16:00,78.2,49.8,30.16,North,357,0.0,4.0,37,0.00,,CLR,0.00,VWS V14.00,2013-03-10 00:16:00,
2013-03-09 16:21:00,78.2,49.1,30.15,North,0,0.0,4.0,36,0.00,,CLR,0.00,VWS V14.00,2013-03-10 00:21:00,
2013-03-09 16:26:00,77.3,49.0,30.15,NW,318,0.0,4.0,37,0.00,,CLR,0.00,VWS V14.00,2013-03-10 00:26:00,
2013-03-09 16:30:00,68.0,49.7,30.17,NNE,29,0.0,1.0,52,0.00,,CLR,0.00,VWS V14.00,2013-03-10 00:30:00,
2013-03-09 16:31:00,75.7,49.0,30.16,North,354,0.0,1.0,39,0.00,,CLR,0.00,VWS V14.00,2013-03-10 00:31:00,
2013-03-09 16:36:00,74.2,49.0,30.16,NNE,14,0.0,2.0,41,0.00,,CLR,0.00,VWS V14.00,2013-03-10 00:36:00,
2013-03-09 16:41:00,73.4,49.6,30.16,North,0,0.0,2.0,43,0.00,,CLR,0.00,VWS V14.00,2013-03-10 00:41:00,
2013-03-09 16:46:00,72.5,49.4,30.17,North,352,0.0,2.0,44,0.00,,CLR,0.00,VWS V14.00,2013-03-10 00:46:00,
2013-03-09 16:51:00,72.2,49.1,30.17,North,358,0.0,2.0,44,0.00,,CLR,0.00,VWS V14.00,2013-03-10 00:51:00,
2013-03-09 16:56:00,71.5,49.7,30.16,NW,317,0.0,2.0,46,0.00,,CLR,0.00,VWS V14.00,2013-03-10 00:56:00,
2013-03-09 17:00:00,65.4,47.8,30.17,North,5,0.0,1.0,53,0.00,,CLR,0.00,VWS V14.00,2013-03-10 01:00:00,
2013-03-09 17:01:00,71.0,48.6,30.16,North,7,0.0,0.0,45,0.00,,CLR,0.00,VWS V14.00,2013-03-10 01:01:00,
2013-03-09 17:06:00,70.2,49.0,30.17,North,359,0.0,1.0,47,0.00,,CLR,0.00,VWS V14.00,2013-03-10 01:06:00,
2013-03-09 17:11:00,69.6,49.6,30.16,North,353,0.0,1.0,49,0.00,,CLR,0.00,VWS V14.00,2013-03-10 01:11:00,
2013-03-09 17:16:00,69.3,49.3,30.16,North,0,0.0,1.0,49,0.00,,CLR,0.00,VWS V14.00,2013-03-10 01:16:00,
2013-03-09 17:21:00,68.9,50.6,30.16,North,0,0.0,1.0,52,0.00,,CLR,0.00,VWS V14.00,2013-03-10 01:21:00,
2013-03-09 17:26:00,68.7,49.9,30.16,NNE,26,0.0,1.0,51,0.00,,CLR,0.00,VWS V14.00,2013-03-10 01:26:00,
2013-03-09 17:30:00,63.1,47.6,30.18,North,5,0.0,0.0,57,0.00,,CLR,0.00,VWS V14.00,2013-03-10 01:30:00,
2013-03-09 17:31:00,68.2,49.4,30.16,NNE,29,0.0,1.0,51,0.00,,CLR,0.00,VWS V14.00,2013-03-10 01:31:00,
2013-03-09 17:36:00,67.6,48.3,30.16,NNE,27,0.0,1.0,50,0.00,,CLR,0.00,VWS V14.00,2013-03-10 01:36:00,
2013-03-09 17:41:00,67.4,48.7,30.16,North,5,0.0,1.0,51,0.00,,CLR,0.00,VWS V14.00,2013-03-10 01:41:00,
2013-03-09 17:46:00,66.6,47.9,30.17,North,5,0.0,1.0,51,0.00,,CLR,0.00,VWS V14.00,2013-03-10 01:46:00,
2013-03-09 17:51:00,66.4,48.8,30.17,North,5,0.0,1.0,53,0.00,,CLR,0.00,VWS V14.00,2013-03-10 01:51:00,
2013-03-09 17:56:00,66.0,48.4,30.17,North,5,0.0,1.0,53,0.00,,CLR,0.00,VWS V14.00,2013-03-10 01:56:00,
2013-03-09 18:00:00,60.5,47.0,30.18,North,5,0.0,0.0,61,0.00,,CLR,0.00,VWS V14.00,2013-03-10 02:00:00,
2013-03-09 18:01:00,65.4,47.8,30.17,North,5,0.0,0.0,53,0.00,,CLR,0.00,VWS V14.00,2013-03-10 02:01:00,
2013-03-09 18:06:00,65.2,48.6,30.17,North,5,0.0,0.0,55,0.00,,CLR,0.00,VWS V14.00,2013-03-10 02:06:00,
2013-03-09 18:11:00,64.7,47.7,30.17,North,5,0.0,0.0,54,0.00,,CLR,0.00,VWS V14.00,2013-03-10 02:11:00,
2013-03-09 18:16:00,64.4,47.9,30.17,North,5,0.0,0.0,55,0.00,,CLR,0.00,VWS V14.00,2013-03-10 02:16:00,
2013-03-09 18:21:00,63.9,47.9,30.18,North,5,0.0,0.0,56,0.00,,CLR,0.00,VWS V14.00,2013-03-10 02:21:00,
2013-03-09 18:26:00,63.4,47.9,30.18,North,5,0.0,0.0,57,0.00,,CLR,0.00,VWS V14.00,2013-03-10 02:26:00,
2013-03-09 18:30:00,58.4,47.1,30.19,North,5,0.0,1.0,66,0.00,,CLR,0.00,VWS V14.00,2013-03-10 02:30:00,
2013-03-09 18:31:00,63.1,48.1,30.18,North,5,0.0,0.0,58,0.00,,CLR,0.00,VWS V14.00,2013-03-10 02:31:00,
2013-03-09 18:36:00,62.7,47.7,30.18,North,5,0.0,0.0,58,0.00,,CLR,0.00,VWS V14.00,2013-03-10 02:36:00,
2013-03-09 18:41:00,62.3,47.3,30.18,North,5,0.0,0.0,58,0.00,,CLR,0.00,VWS V14.00,2013-03-10 02:41:00,
2013-03-09 18:46:00,61.6,47.2,30.18,North,5,0.0,0.0,59,0.00,,CLR,0.00,VWS V14.00,2013-03-10 02:46:00,
2013-03-09 18:51:00,61.3,47.3,30.18,North,5,0.0,0.0,60,0.00,,CLR,0.00,VWS V14.00,2013-03-10 02:51:00,
2013-03-09 18:56:00,61.1,47.6,30.18,North,5,0.0,0.0,61,0.00,,CLR,0.00,VWS V14.00,2013-03-10 02:56:00,
2013-03-09 19:00:00,56.3,46.3,30.19,North,9,0.0,1.0,69,0.00,,CLR,0.00,VWS V14.00,2013-03-10 03:00:00,
2013-03-09 19:01:00,60.4,46.9,30.19,North,5,0.0,0.0,61,0.00,,CLR,0.00,VWS V14.00,2013-03-10 03:01:00,
2013-03-09 19:06:00,60.0,47.4,30.18,North,5,0.0,0.0,63,0.00,,CLR,0.00,VWS V14.00,2013-03-10 03:06:00,
2013-03-09 19:11:00,59.7,47.5,30.18,North,5,0.0,0.0,64,0.00,,CLR,0.00,VWS V14.00,2013-03-10 03:11:00,
2013-03-09 19:16:00,59.1,47.4,30.19,North,5,0.0,0.0,65,0.00,,CLR,0.00,VWS V14.00,2013-03-10 03:16:00,
2013-03-09 19:21:00,58.8,47.1,30.18,North,5,0.0,0.0,65,0.00,,CLR,0.00,VWS V14.00,2013-03-10 03:21:00,
2013-03-09 19:26:00,58.6,47.7,30.19,North,5,0.0,0.0,67,0.00,,CLR,0.00,VWS V14.00,2013-03-10 03:26:00,
2013-03-09 19:30:00,54.5,45.7,30.20,North,9,0.0,0.0,72,0.00,,CLR,0.00,VWS V14.00,2013-03-10 03:30:00,
2013-03-09 19:31:00,58.2,46.9,30.19,North,5,0.0,0.0,66,0.00,,CLR,0.00,VWS V14.00,2013-03-10 03:31:00,
2013-03-09 19:36:00,58.1,47.2,30.19,North,9,0.0,1.0,67,0.00,,CLR,0.00,VWS V14.00,2013-03-10 03:36:00,
2013-03-09 19:41:00,57.8,46.9,30.19,North,9,0.0,1.0,67,0.00,,CLR,0.00,VWS V14.00,2013-03-10 03:41:00,
2013-03-09 19:46:00,57.4,46.9,30.18,North,9,0.0,1.0,68,0.00,,CLR,0.00,VWS V14.00,2013-03-10 03:46:00,
2013-03-09 19:51:00,56.8,46.4,30.19,North,9,0.0,1.0,68,0.00,,CLR,0.00,VWS V14.00,2013-03-10 03:51:00,
2013-03-09 19:56:00,56.6,46.6,30.19,North,9,0.0,1.0,69,0.00,,CLR,0.00,VWS V14.00,2013-03-10 03:56:00,
2013-03-09 20:00:00,53.6,45.9,30.21,North,9,0.0,0.0,75,0.00,,CLR,0.00,VWS V14.00,2013-03-10 04:00:00,
2013-03-09 20:01:00,56.1,46.1,30.19,North,9,0.0,0.0,69,0.00,,CLR,0.00,VWS V14.00,2013-03-10 04:01:00,
2013-03-09 20:06:00,56.0,46.4,30.19,North,9,0.0,0.0,70,0.00,,CLR,0.00,VWS V14.00,2013-03-10 04:06:00,
2013-03-09 20:11:00,55.8,46.2,30.19,North,9,0.0,0.0,70,0.00,,CLR,0.00,VWS V14.00,2013-03-10 04:11:00,
2013-03-09 20:16:00,55.4,46.2,30.20,North,9,0.0,0.0,71,0.00,,CLR,0.00,VWS V14.00,2013-03-10 04:16:00,
2013-03-09 20:21:00,55.2,46.0,30.20,North,9,0.0,0.0,71,0.00,,CLR,0.00,VWS V14.00,2013-03-10 04:21:00,
2013-03-09 20:26:00,54.8,46.0,30.20,North,9,0.0,0.0,72,0.00,,CLR,0.00,VWS V14.00,2013-03-10 04:26:00,
2013-03-09 20:30:00,52.1,45.1,30.22,North,9,0.0,0.0,77,0.00,,CLR,0.00,VWS V14.00,2013-03-10 04:30:00,
2013-03-09 20:31:00,54.6,45.8,30.20,North,9,0.0,0.0,72,0.00,,CLR,0.00,VWS V14.00,2013-03-10 04:31:00,
2013-03-09 20:36:00,54.4,45.6,30.20,North,9,0.0,0.0,72,0.00,,CLR,0.00,VWS V14.00,2013-03-10 04:36:00,
2013-03-09 20:41:00,54.2,45.8,30.20,North,9,0.0,0.0,73,0.00,,CLR,0.00,VWS V14.00,2013-03-10 04:41:00,
2013-03-09 20:46:00,54.0,45.9,30.21,North,9,0.0,0.0,74,0.00,,CLR,0.00,VWS V14.00,2013-03-10 04:46:00,
2013-03-09 20:51:00,53.7,45.6,30.21,North,9,0.0,0.0,74,0.00,,CLR,0.00,VWS V14.00,2013-03-10 04:51:00,
2013-03-09 20:56:00,53.6,45.9,30.21,North,9,0.0,0.0,75,0.00,,CLR,0.00,VWS V14.00,2013-03-10 04:56:00,
2013-03-09 21:00:00,53.6,45.9,30.21,North,9,0.0,0.0,75,0.00,,CLR,0.00,VWS V14.00,2013-03-10 05:00:00,
2013-03-09 21:05:00,53.0,45.3,30.21,North,9,0.0,0.0,75,0.00,,CLR,0.00,VWS V14.00,2013-03-10 05:05:00,
2013-03-09 21:10:00,52.9,45.5,30.21,North,9,0.0,0.0,76,0.00,,CLR,0.00,VWS V14.00,2013-03-10 05:10:00,
2013-03-09 21:15:00,52.5,45.2,30.22,North,9,0.0,0.0,76,0.00,,CLR,0.00,VWS V14.00,2013-03-10 05:15:00,
2013-03-09 21:20:00,52.5,45.2,30.21,North,9,0.0,0.0,76,0.00,,CLR,0.00,VWS V14.00,2013-03-10 05:20:00,
2013-03-09 21:25:00,52.5,45.5,30.22,North,9,0.0,0.0,77,0.00,,CLR,0.00,VWS V14.00,2013-03-10 05:25:00,
2013-03-09 21:30:00,51.9,44.6,30.22,North,9,0.0,0.0,76,0.00,,CLR,0.00,VWS V14.00,2013-03-10 05:30:00,
2013-03-09 21:35:00,51.8,44.8,30.22,North,9,0.0,0.0,77,0.00,,CLR,0.00,VWS V14.00,2013-03-10 05:35:00,
2013-03-09 21:40:00,51.5,44.5,30.22,North,9,0.0,0.0,77,0.00,,CLR,0.00,VWS V14.00,2013-03-10 05:40:00,
2013-03-09 21:45:00,51.5,44.5,30.22,North,9,0.0,0.0,77,0.00,,CLR,0.00,VWS V14.00,2013-03-10 05:45:00,
2013-03-09 21:50:00,51.2,44.2,30.22,North,9,0.0,0.0,77,0.00,,CLR,0.00,VWS V14.00,2013-03-10 05:50:00,
2013-03-09 21:55:00,50.6,44.0,30.21,North,9,0.0,0.0,78,0.00,,CLR,0.00,VWS V14.00,2013-03-10 05:55:00,
2013-03-09 22:00:00,50.7,44.4,30.22,North,9,0.0,0.0,79,0.00,,CLR,0.00,VWS V14.00,2013-03-10 06:00:00,
2013-03-09 22:05:00,50.6,44.7,30.22,North,9,0.0,0.0,80,0.00,,CLR,0.00,VWS V14.00,2013-03-10 06:05:00,
2013-03-09 22:10:00,50.1,44.5,30.22,North,9,0.0,0.0,81,0.00,,CLR,0.00,VWS V14.00,2013-03-10 06:10:00,
2013-03-09 22:15:00,50.2,44.6,30.22,North,9,0.0,0.0,81,0.00,,CLR,0.00,VWS V14.00,2013-03-10 06:15:00,
2013-03-09 22:20:00,49.8,44.2,30.22,North,9,0.0,0.0,81,0.00,,CLR,0.00,VWS V14.00,2013-03-10 06:20:00,
2013-03-09 22:25:00,49.6,43.7,30.22,North,9,0.0,0.0,80,0.00,,CLR,0.00,VWS V14.00,2013-03-10 06:25:00,
2013-03-09 22:30:00,49.5,43.6,30.22,North,9,0.0,0.0,80,0.00,,CLR,0.00,VWS V14.00,2013-03-10 06:30:00,
2013-03-09 22:35:00,49.3,43.4,30.22,North,9,0.0,0.0,80,0.00,,CLR,0.00,VWS V14.00,2013-03-10 06:35:00,
2013-03-09 22:40:00,49.1,43.2,30.22,North,9,0.0,0.0,80,0.00,,CLR,0.00,VWS V14.00,2013-03-10 06:40:00,
2013-03-09 22:45:00,48.7,42.8,30.22,North,9,0.0,0.0,80,0.00,,CLR,0.00,VWS V14.00,2013-03-10 06:45:00,
2013-03-09 22:50:00,48.6,42.4,30.22,North,9,0.0,0.0,79,0.00,,CLR,0.00,VWS V14.00,2013-03-10 06:50:00,
2013-03-09 22:55:00,48.6,42.4,30.23,North,9,0.0,0.0,79,0.00,,CLR,0.00,VWS V14.00,2013-03-10 06:55:00,
2013-03-09 23:00:00,48.7,42.2,30.23,North,9,0.0,0.0,78,0.00,,CLR,0.00,VWS V14.00,2013-03-10 07:00:00,
2013-03-09 23:05:00,48.4,42.2,30.22,North,9,0.0,0.0,79,0.00,,CLR,0.00,VWS V14.00,2013-03-10 07:05:00,
2013-03-09 23:10:00,48.1,41.9,30.23,North,9,0.0,0.0,79,0.00,,CLR,0.00,VWS V14.00,2013-03-10 07:10:00,
2013-03-09 23:15:00,47.8,41.6,30.22,North,9,0.0,0.0,79,0.00,,CLR,0.00,VWS V14.00,2013-03-10 07:15:00,
2013-03-09 23:20:00,47.7,41.5,30.23,North,9,0.0,0.0,79,0.00,,CLR,0.00,VWS V14.00,2013-03-10 07:20:00,
2013-03-09 23:25:00,47.4,41.2,30.22,North,9,0.0,0.0,79,0.00,,CLR,0.00,VWS V14.00,2013-03-10 07:25:00,
2013-03-09 23:30:00,47.4,41.2,30.22,North,9,0.0,0.0,79,0.00,,CLR,0.00,VWS V14.00,2013-03-10 07:30:00,
2013-03-09 23:35:00,47.1,40.9,30.22,North,9,0.0,0.0,79,0.00,,CLR,0.00,VWS V14.00,2013-03-10 07:35:00,
2013-03-09 23:40:00,47.0,41.2,30.21,North,9,0.0,0.0,80,0.00,,CLR,0.00,VWS V14.00,2013-03-10 07:40:00,
2013-03-09 23:45:00,47.0,41.8,30.22,North,9,0.0,0.0,82,0.00,,CLR,0.00,VWS V14.00,2013-03-10 07:45:00,
2013-03-09 23:50:00,46.6,41.4,30.22,North,9,0.0,0.0,82,0.00,,CLR,0.00,VWS V14.00,2013-03-10 07:50:00,
2013-03-09 23:55:00,46.3,41.1,30.22,North,9,0.0,0.0,82,0.00,,CLR,0.00,VWS V14.00,2013-03-10 07:55:00,